Regional Weather Roundup
Issued by NWS

Home | Current Version | Previous Version | Graphics & Text | Print | Product List | Glossary On
Versions: 1 2 3 4 5 6 7 8 9 10 11 12 13 14 15 16 17 18 19 20 21 22 23 24 25 26 27 28 29 30 31 32 33 34 35 36 37 38 39 40 41 42 43 44 45 46 47 48 49 50
000
ASUS43 KTOP 231508
RWRKS

WEATHER ROUNDUP FOR KANSAS
NATIONAL WEATHER SERVICE GOODLAND KS
1000 AM CDT THU OCT 23 2014

NOTE:  "FAIR" INDICATES FEW OR NO CLOUDS BELOW 12,000 FEET WITH NO
SIGNIFICANT WEATHER AND/OR OBSTRUCTIONS TO VISIBILITY.

KSZ001>006-013>018-027>032-041>047-231600-
NORTHWEST KANSAS

CITY           SKY/WX    TMP DP  RH WIND       PRES   REMARKS
GOODLAND       MOSUNNY   56  50  80 W3        30.16R
HAYS           CLOUDY    57  54  88 E3        30.11R VSB<1/4
HILL CITY      FOG       55  55 100 CALM      30.12R VSB 1/4
RUSSELL        MOSUNNY   60  59  96 CALM      30.09R FOG
$$

KSZ061>065-074>080-084>089-231600-
SOUTHWEST KANSAS

CITY           SKY/WX    TMP DP  RH WIND       PRES   REMARKS
DODGE CITY     CLOUDY    60  57  89 SE7       30.12R FOG
ELKHART          N/A     53  48  83 W5          N/A
GARDEN CITY    FOG       58  58 100 CALM      30.12R VSB 1
GREAT BEND     CLOUDY    61  55  82 SW7       30.11R
LIBERAL        CLOUDY    55  52  88 N3        30.13R VSB 1/4
PRATT          CLOUDY    59  55  88 SW9       30.12R
$$

KSZ066>073-081>083-090>101-231600-
SOUTHEAST KANSAS

CITY           SKY/WX    TMP DP  RH WIND       PRES   REMARKS
CHANUTE        CLOUDY    60  58  92 S13       30.14R
COFFEYVILLE    LGT RAIN  59  58  96 S12       30.15S
HUTCHINSON     CLOUDY    62  57  83 S5        30.10R
MEDICINE LODGE   N/A     61  57  87 S3        30.11R
NEWTON         CLOUDY    61  54  77 S7        30.13R
PARSONS        CLOUDY    60  58  92 S9        30.16R
WICHITA INTL   CLOUDY    64  60  87 S9        30.10R
WICHITA JABRA  CLOUDY    63  60  90 S9        30.10S FOG
WICHITA MCCONL CLOUDY    63  63 100 S10       30.11R
WINFIELD       CLOUDY    62  60  93 S13       30.13R
$$

KSZ007>012-019>026-033>040-048>060-102>105-231600-
NORTHEAST KANSAS

CITY           SKY/WX    TMP DP  RH WIND       PRES   REMARKS
CONCORDIA      PTSUNNY   63  61  93 SW8       30.09R
EMPORIA        CLOUDY    62  61  96 S10       30.11R FOG
LAWRENCE       MOSUNNY   63  60  90 S6        30.09S
MANHATTAN      CLOUDY    62  61  96 SW8       30.09R
MARYSVILLE     CLOUDY    61  61 100 SW6       30.09R
OLATHE IND     MOSUNNY   60  59  96 S10       30.10S
OLATHE EXE     CLOUDY    60  59  96 S9        30.10S
SALINA         CLOUDY    64  59  83 S3        30.10R
TOPEKA BILLARD CLOUDY    63  61  93 S9        30.09R
TOPEKA FORBES  CLOUDY    62  60  93 S9        30.09S
$$



USA.gov is the U.S. government's official web portal to all federal, state and local government web resources and services.